Terminal Aerodrome Forecast
Issued by NWS

Home | Current Version | Previous Version | Text Only | Print | Product List | Glossary On
Versions: 1 2 3 4 5 6 7 8 9 10 11 12 13 14 15 16 17 18 19 20 21
815
FTUS42 KFFC 210348 AAA
TAFFTY
TAF AMD
KFTY 210348Z 2104/2124 VRB04KT P6SM SCT025 BKN050
     FM210600 00000KT P6SM SCT007 OVC025
     FM210700 00000KT 5SM BR BKN007 OVC015
     FM210900 00000KT 3SM BR OVC004
     FM211200 16004KT 3SM -TSRA BKN004 OVC015CB
     FM211600 16004KT 5SM -TSRA BKN007 OVC010CB
     FM212100 17006KT 5SM BR VCSH BKN012=

USA.gov is the U.S. government's official web portal to all federal, state and local government web resources and services.